Weather History for Bainbridge, GA

Change the Weather History Date:

Friday, January 4, 2013

  Actual Average (KMAI) Record (KMAI)
Temperature  
Mean Temperature 46 °F 50 °F  
Max Temperature 57 °F 61 °F 79 °F (2004)
Min Temperature 35 °F 38 °F 21 °F (2001)
Degree Days  
Heating Degree Days 19    
Month to date heating degree days  
Since 1 July heating degree days  
Cooling Degree Days 0    
Month to date cooling degree days  
Year to date cooling degree days  
Moisture  
Dew Point 40 °F    
Average Humidity 81    
Maximum Humidity 100    
Minimum Humidity 63    
Precipitation  
Precipitation 0.00 in 0.17 in 0.14 in (2000)
Month to date precipitation 0.69  
Year to date precipitation 0.69  
Sea Level Pressure  
Sea Level Pressure 30.34 in    
Wind  
Wind Speed 3 mph (North)    
Max Wind Speed 10 mph    
Max Gust Speed -    
Visibility 9 miles    
Events      
T = Trace of Precipitation, MM = Missing Value Source: NWS Daily Summary

Daily Weather History Graph

Daily Weather History Graph

Search for Another Location

Airport:

Trip Planner

Search our weather history database for the weather conditions in past years. The results will help you decide how hot, cold, wet, or windy it might be!

Date:

Astronomy

Jan. 04, 2013 Rise Set
Actual Time 7:37 AM EST 5:50 PM EST
Civil Twilight 7:10 AM EST 6:16 PM EST
Nautical Twilight 6:40 AM EST 6:46 PM EST
Astronomical Twilight 6:11 AM EST 7:16 PM EST
Moon No Moon Rise 11:50 AM EST (1/4)
Length of Visible Light 11h 05m
Length of Day
10h 12m
Waning Gibbous, 55% of the Moon is Illuminated
Jan 4
Waning Gibbous
Jan 4
Last Quarter
Jan 11
New
Jan 18
First Quarter
Jan 26
Full

Hourly Weather History & Observations

Time (EST) Temp. Windchill Dew Point Humidity Pressure Visibility Wind Dir Wind Speed Gust Speed Precip Events Conditions
12:15 AM 41.0 °F 39.0 °F 41.0 °F 100% 30.32 in 4.0 mi NW 3.5 mph - N/A   Clear
12:35 AM 41.0 °F 38.0 °F 41.0 °F 100% 30.31 in 4.0 mi NNW 4.6 mph - N/A   Clear
12:55 AM 41.0 °F 39.0 °F 39.2 °F 93% 30.31 in 5.0 mi North 3.5 mph - N/A   Clear
1:15 AM 39.2 °F 35.9 °F 37.4 °F 93% 30.30 in 5.0 mi North 4.6 mph - N/A   Clear
1:35 AM 39.2 °F - 37.4 °F 93% 30.31 in 7.0 mi Calm Calm - N/A   Clear
1:55 AM 39.2 °F - 37.4 °F 93% 30.31 in 7.0 mi Calm Calm - N/A   Clear
2:15 AM 39.2 °F 37.0 °F 37.4 °F 93% 30.31 in 7.0 mi North 3.5 mph - N/A   Clear
2:35 AM 39.2 °F 35.9 °F 37.4 °F 93% 30.31 in 7.0 mi North 4.6 mph - N/A   Clear
2:55 AM 39.2 °F - 37.4 °F 93% 30.31 in 7.0 mi Calm Calm - N/A   Clear
3:15 AM 39.2 °F - 37.4 °F 93% 30.31 in 7.0 mi Calm Calm - N/A   Clear
3:35 AM 39.2 °F 35.9 °F 37.4 °F 93% 30.31 in 7.0 mi North 4.6 mph - N/A   Clear
3:55 AM 39.2 °F 35.9 °F 35.6 °F 87% 30.31 in 7.0 mi North 4.6 mph - N/A   Clear
4:15 AM 39.2 °F 35.9 °F 35.6 °F 87% 30.32 in 7.0 mi NNW 4.6 mph - N/A   Clear
6:55 AM 37.4 °F 34.9 °F 33.8 °F 87% 30.32 in 10.0 mi NE 3.5 mph - N/A   Clear
7:15 AM 35.6 °F - 33.8 °F 93% 30.33 in 10.0 mi Calm Calm - N/A   Clear
8:15 AM 35.6 °F - 33.8 °F 93% 30.35 in 10.0 mi Calm Calm - N/A   Clear
8:55 AM 37.4 °F - 33.8 °F 87% 30.37 in 10.0 mi Calm Calm - N/A   Clear
9:15 AM 39.2 °F 35.9 °F 35.6 °F 87% 30.38 in 10.0 mi NNW 4.6 mph - N/A   Clear
9:35 AM 39.2 °F 35.9 °F 33.8 °F 81% 30.38 in 10.0 mi North 4.6 mph - N/A   Clear
9:55 AM 41.0 °F 34.7 °F 35.6 °F 81% 30.38 in 10.0 mi NNE 10.4 mph - N/A   Clear
10:15 AM 41.0 °F 38.0 °F 35.6 °F 81% 30.38 in 10.0 mi NNE 4.6 mph - N/A   Clear
10:35 AM 42.8 °F 41.1 °F 37.4 °F 81% 30.39 in 10.0 mi NNE 3.5 mph - N/A   Clear
10:55 AM 44.6 °F 42.2 °F 37.4 °F 76% 30.39 in 10.0 mi North 4.6 mph - N/A   Clear
11:15 AM 44.6 °F 42.2 °F 37.4 °F 76% 30.38 in 10.0 mi North 4.6 mph - N/A   Clear
11:55 AM 46.4 °F 43.5 °F 39.2 °F 76% 30.38 in 10.0 mi North 5.8 mph - N/A   Clear
12:15 PM 46.4 °F 42.9 °F 39.2 °F 76% 30.38 in 10.0 mi North 6.9 mph - N/A   Clear
12:35 PM 46.4 °F 44.3 °F 41.0 °F 81% 30.37 in 10.0 mi North 4.6 mph - N/A   Clear
12:55 PM 50.0 °F - 41.0 °F 71% 30.36 in 10.0 mi NE 3.5 mph - N/A   Clear
1:15 PM 51.8 °F - 42.8 °F 71% 30.35 in 10.0 mi NNE 4.6 mph - N/A   Clear
1:55 PM 51.8 °F - 42.8 °F 71% 30.33 in 10.0 mi North 8.1 mph - N/A   Clear
2:15 PM 53.6 °F - 42.8 °F 67% 30.33 in 10.0 mi NNW 5.8 mph - N/A   Clear
2:35 PM 53.6 °F - 42.8 °F 67% 30.33 in 10.0 mi NNW 6.9 mph - N/A   Clear
2:55 PM 53.6 °F - 42.8 °F 67% 30.32 in 10.0 mi North 8.1 mph - N/A   Clear
3:15 PM 53.6 °F - 42.8 °F 67% 30.32 in 10.0 mi North 4.6 mph - N/A   Clear
3:35 PM 53.6 °F - 42.8 °F 67% 30.31 in 10.0 mi NE 6.9 mph - N/A   Clear
3:55 PM 55.4 °F - 42.8 °F 63% 30.32 in 10.0 mi NNE 3.5 mph - N/A   Clear
4:15 PM 55.4 °F - 42.8 °F 63% 30.32 in 10.0 mi North 3.5 mph - N/A   Clear
4:35 PM 57.2 °F - 44.6 °F 63% 30.32 in 10.0 mi North 6.9 mph - N/A   Clear
4:55 PM 53.6 °F - 42.8 °F 67% 30.33 in 10.0 mi NNW 5.8 mph - N/A   Clear
5:15 PM 53.6 °F - 42.8 °F 67% 30.33 in 10.0 mi North 4.6 mph - N/A   Clear
5:35 PM 53.6 °F - 42.8 °F 67% 30.33 in 10.0 mi Calm Calm - N/A   Clear
5:55 PM 51.8 °F - 42.8 °F 71% 30.33 in 10.0 mi Calm Calm - N/A   Clear
6:15 PM 51.8 °F - 44.6 °F 76% 30.33 in 10.0 mi Calm Calm - N/A   Clear
6:35 PM 51.8 °F - 44.6 °F 76% 30.33 in 10.0 mi Calm Calm - N/A   Clear
6:55 PM 44.6 °F - 42.8 °F 93% 30.34 in 10.0 mi Calm Calm - N/A   Clear
7:15 PM 46.4 °F - 42.8 °F 87% 30.35 in 10.0 mi Calm Calm - N/A   Clear
7:35 PM 44.6 °F - 42.8 °F 93% 30.35 in 10.0 mi Calm Calm - N/A   Clear
7:55 PM 44.6 °F - 42.8 °F 93% 30.36 in 10.0 mi Calm Calm - N/A   Clear
8:15 PM 44.6 °F - 42.8 °F 93% 30.36 in 10.0 mi Calm Calm - N/A   Clear
8:35 PM 44.6 °F - 42.8 °F 93% 30.36 in 10.0 mi Calm Calm - N/A   Clear
8:55 PM 44.6 °F 43.1 °F 42.8 °F 93% 30.37 in 10.0 mi NW 3.5 mph - N/A   Clear
9:15 PM 44.6 °F 43.1 °F 42.8 °F 93% 30.37 in 10.0 mi NW 3.5 mph - N/A   Clear
9:35 PM 44.6 °F 43.1 °F 41.0 °F 87% 30.38 in 10.0 mi WNW 3.5 mph - N/A   Clear
9:55 PM 44.6 °F 43.1 °F 41.0 °F 87% 30.38 in 10.0 mi NW 3.5 mph - N/A   Clear
10:15 PM 44.6 °F 43.1 °F 41.0 °F 87% 30.37 in 10.0 mi NNW 3.5 mph - N/A   Clear
10:35 PM 46.4 °F 44.3 °F 39.2 °F 76% 30.37 in 10.0 mi North 4.6 mph - N/A   Clear
10:55 PM 46.4 °F 42.4 °F 37.4 °F 71% 30.36 in 10.0 mi North 8.1 mph - N/A   Clear
11:15 PM 48.2 °F - 37.4 °F 66% 30.36 in 10.0 mi North 5.8 mph - N/A   Clear
11:35 PM 46.4 °F 44.3 °F 37.4 °F 71% 30.35 in 10.0 mi North 4.6 mph - N/A   Clear
11:55 PM 46.4 °F 43.5 °F 35.6 °F 66% 30.36 in 10.0 mi North 5.8 mph - N/A   Clear